Regional Weather Roundup
Issued by NWS Kansas City/Pleasant Hill, MO

Home | Current Version | Previous Version | Text Only | Print | Product List | Glossary On
Versions: 1 2 3 4 5 6 7 8 9 10 11 12 13 14 15 16 17 18 19 20 21 22 23 24 25 26 27 28 29 30 31 32 33 34 35 36 37 38 39 40 41 42 43 44 45 46 47 48 49 50
861
ASUS43 KEAX 241410
RWREAX

WEATHER ROUNDUP FOR EASTERN KANSAS AND NORTHWEST MISSOURI
NATIONAL WEATHER SERVICE KANSAS CITY/PLEASANT HILL MO
800 AM CST FRI NOV 24 2017

KSZ040-057-103>105-MOZ028-029-037-043-241500-
...KANSAS CITY METROPOLITAN AREA...

CITY           SKY/WX    TMP DP  RH WIND       PRES   REMARKS
K.C. INTL      PTCLDY    53  35  50 S20G26    29.68F
K.C. DOWNTOWN  CLEAR     56  35  45 S15G24    29.70F
LEES SUMMIT    CLEAR     50  34  54 S17       29.73F
OLATHE - IXD   CLEAR     46  35  65 S12       29.73F
OLATHE - OJC   CLEAR     48  34  58 S13       29.73F
LAWRENCE       CLEAR     50  36  58 SE7       29.72F

$$

MOZ001>008-011>017-020>025-030>033-038>040-044>046-053-054-241500-
...NORTHERN AND CENTRAL MISSOURI...

CITY           SKY/WX    TMP DP  RH WIND       PRES   REMARKS
ST. JOSEPH     CLEAR     52  35  52 SW21      29.65F
MOSBY          SUNNY     50  32  50 S7        29.70F
WARRENSBURG    CLEAR     45  32  61 S10       29.77F
WHITEMAN AFB   CLEAR     46  33  59 S13       29.74S
CLINTON        CLEAR     48  32  53 MISG      29.81S
SEDALIA        CLEAR     51  34  52 S16       29.80S
WARSAW         NOT AVBL
CHILLICOTHE      N/A     50  34  54 S15G22    29.69F
KIRKSVILLE     CLEAR     51  34  52 SW14      29.71F

$$

MOZ041-047>049-056>058-063>065-088>090-097-241500-
...EASTERN AND SOUTHERN MISSOURI...

CITY           SKY/WX    TMP DP  RH WIND       PRES   REMARKS
ST. LOUIS INTL PTSUNNY   43  32  65 S7        29.86S
SPIRIT OF STL  MOSUNNY   35  33  92 CALM      29.84S
COLUMBIA       CLEAR     45  33  63 S7        29.81F
JEFFERSON CITY PTCLDY    44  32  62 E5        29.83F
ROLLA          CLEAR     47  31  53 S13       29.86S
OSAGE BEACH    CLOUDY    42  33  70 SE6       29.84F
SPRINGFIELD    PTCLDY    44  33  65 S9        29.86F
BRANSON        PTCLDY    54  28  37 CALM      29.91S
JOPLIN         PTCLDY    51  32  48 S15       29.85F
WEST PLAINS    CLOUDY    43  31  62 S3        29.92S

$$

IAZ060-094-KSZ022-034>040-054-083-096-NEZ052-066-093-241500-
...KANSAS...SOUTHEAST NEBRASKA AND IOWA...

CITY           SKY/WX    TMP DP  RH WIND       PRES   REMARKS
TOPEKA         CLEAR     51  36  56 SW10      29.70F
MANHATTAN      CLEAR     53  37  54 SW15      29.68S
EMPORIA        PTCLDY    47  35  63 S14       29.73F
CHANUTE        PTCLDY    47  33  58 S12       29.81F
WICHITA        PTCLDY    45  37  73 S9        29.75S
OMAHA          CLEAR     45  37  73 SE10      29.53F
LINCOLN        CLEAR     47  39  74 S6        29.57F
FALLS CITY     CLEAR     50  36  58 S15       29.61F
LAMONI         CLEAR     48  35  60 S15       29.60F
DES MOINES     PTCLDY    51  36  56 S13       29.54F

$$





USA.gov is the U.S. government's official web portal to all federal, state and local government web resources and services.